FW4331 Weather Reports


Display with metric or nautical units.
time (UTC)temp
F
wind
direction
speed
MPH
gust
MPH
rain 1hr
in
rain 24hr
in
rain mn
in
humidity
%
barometer
mb
20260508133129 59 289 4.0 10.0 0.00 0.00 0.00 30 1014.5
20260508131522 58 237 3.0 8.0 0.00 0.00 0.00 31 1014.6
20260508130027 58 288 0.0 7.0 0.00 0.00 0.00 35 1014.8
20260508124529 57 264 0.0 5.0 0.00 0.00 0.00 40 1014.9
20260508123018 55 283 0.0 2.0 0.00 0.00 0.00 44 1014.7
20260508121503 53 274 0.0 3.0 0.00 0.00 0.00 50 1014.7
20260508120100 51 254 0.0 1.0 0.00 0.00 0.00 50 1014.5
20260508114624 50 263 0.0 0.0 0.00 0.00 0.00 54 1014.5
20260508113054 49 227 0.0 0.0 0.00 0.00 0.00 53 1014.4
20260508111552 46 232 0.0 1.0 0.00 0.00 0.00 56 1014.1
20260508110047 45 305 0.0 0.0 0.00 0.00 0.00 57 1013.9
20260508104547 44 316 0.0 0.0 0.00 0.00 0.00 58 1013.8
20260508103046 42 316 0.0 0.0 0.00 0.00 0.00 61 1013.5
20260508101545 42 316 0.0 0.0 0.00 0.00 0.00 60 1013.4
20260508100036 42 316 0.0 0.0 0.00 0.00 0.00 59 1013.2
20260508094543 43 316 0.0 0.0 0.00 0.00 0.00 60 1013.0
20260508093031 43 316 0.0 0.0 0.00 0.00 0.00 59 1012.9
20260508091541 43 316 0.0 0.0 0.00 0.00 0.00 58 1013.0
20260508090027 45 316 0.0 0.0 0.00 0.00 0.00 54 1013.0
20260508084517 46 316 0.0 0.0 0.00 0.00 0.00 52 1012.9
20260508083015 46 326 0.0 0.0 0.00 0.00 0.00 50 1012.7
20260508081525 47 18 0.0 0.0 0.00 0.00 0.00 50 1012.7
20260508080006 48 252 0.0 0.0 0.00 0.00 0.00 48 1012.5
20260508074504 50 263 0.0 1.0 0.00 0.00 0.00 45 1012.4
20260508073001 50 294 0.0 3.0 0.00 0.00 0.00 43 1012.4
20260508071623 51 334 0.0 1.0 0.00 0.00 0.00 44 1011.9
20260508070101 51 319 0.0 5.0 0.00 0.00 0.00 43 1011.8
20260508064553 52 336 0.0 4.0 0.00 0.00 0.00 43 1011.7
20260508063049 51 25 0.0 6.0 0.00 0.00 0.00 45 1011.5
20260508061547 50 328 0.0 3.0 0.00 0.00 0.00 48 1011.3
20260508060045 50 335 0.0 3.0 0.00 0.00 0.00 50 1011.4
20260508054548 50 8 0.0 2.0 0.00 0.02 0.00 52 1011.4
20260508053044 50 13 0.0 3.0 0.00 0.02 0.00 52 1011.6
20260508051541 49 322 0.0 3.0 0.00 0.02 0.00 48 1011.4
20260508050038 48 9 0.0 1.0 0.00 0.02 0.00 46 1011.2
20260508044529 48 29 0.0 1.0 0.00 0.05 0.00 50 1010.9
20260508043024 48 316 0.0 0.0 0.00 0.05 0.00 56 1010.7
20260508041520 49 297 0.0 1.0 0.00 0.05 0.00 57 1010.6
20260508040027 50 274 0.0 2.0 0.00 0.06 0.05 58 1010.4
20260508034515 51 264 0.0 5.0 0.00 0.06 0.05 58 1010.3
20260508033010 51 262 0.0 6.0 0.00 0.06 0.05 59 1010.1
20260508031509 51 267 0.0 4.0 0.00 0.06 0.05 59 1010.2
20260508030006 51 269 0.0 2.0 0.00 0.06 0.05 60 1010.1
20260508024507 51 258 0.0 4.0 0.00 0.06 0.05 60 1010.2
20260508023005 51 257 0.0 3.0 0.00 0.06 0.05 60 1010.0
20260508021600 51 254 0.0 3.0 0.00 0.06 0.05 60 1009.9
20260508020111 51 257 0.0 2.0 0.00 0.06 0.05 60 1009.8
20260508014618 51 245 0.0 1.0 0.00 0.06 0.05 60 1009.8
20260508013106 52 226 0.0 1.0 0.00 0.06 0.05 60 1009.5
20260508011556 52 255 0.0 1.0 0.00 0.06 0.05 59 1009.3
20260508010049 53 257 0.0 2.0 0.00 0.06 0.05 59 1009.4
20260508004543 53 238 0.0 2.0 0.00 0.06 0.05 58 1009.2
20260508003043 54 224 0.0 2.0 0.00 0.06 0.05 57 1009.1
20260508001549 55 245 0.0 3.0 0.00 0.06 0.05 55 1008.7
20260508000038 56 248 0.0 4.0 0.00 0.06 0.05 54 1008.7
20260507234535 57 246 2.0 9.0 0.00 0.06 0.05 52 1008.3
20260507233036 58 240 3.0 8.0 0.00 0.06 0.05 49 1008.1
20260507231532 59 223 1.0 7.0 0.00 0.06 0.05 48 1008.0
20260507230035 59 231 2.0 8.0 0.00 0.06 0.05 46 1007.9
20260507224532 60 225 4.0 10.0 0.00 0.06 0.05 45 1007.7
20260507223026 62 105 2.0 10.0 0.00 0.06 0.05 44 1007.4
20260507221525 63 196 4.0 8.0 0.00 0.06 0.05 43 1007.3
20260507220021 63 223 3.0 6.0 0.00 0.06 0.05 40 1007.1
20260507214516 63 198 3.0 10.0 0.00 0.06 0.05 40 1007.3
20260507213015 63 167 2.0 10.0 0.00 0.06 0.05 40 1007.3
20260507211527 63 229 1.0 6.0 0.00 0.06 0.05 39 1007.3
20260507210008 62 241 4.0 9.0 0.00 0.06 0.05 39 1007.3
20260507204506 62 205 4.0 10.0 0.00 0.06 0.05 42 1007.3
20260507203004 62 154 4.0 10.0 0.00 0.06 0.05 40 1007.4
20260507201502 62 257 3.0 10.0 0.00 0.06 0.05 41 1007.5
20260507200057 62 231 5.0 11.0 0.00 0.06 0.05 39 1007.7
20260507194558 61 259 3.0 9.0 0.00 0.06 0.05 38 1007.9
20260507193051 61 224 3.0 11.0 0.00 0.06 0.05 40 1007.8
20260507191555 61 129 4.0 11.0 0.00 0.06 0.05 41 1008.0
20260507190047 62 148 7.0 14.0 0.00 0.06 0.05 39 1008.2
20260507184543 63 252 5.0 12.0 0.00 0.06 0.05 38 1008.1
20260507183050 64 204 4.0 10.0 0.00 0.06 0.05 34 1008.2
20260507181537 63 120 0.0 8.0 0.00 0.06 0.05 31 1008.5
20260507180045 63 229 1.0 7.0 0.00 0.06 0.05 31 1008.6
20260507174533 62 349 0.0 6.0 0.00 0.06 0.05 33 1008.8
20260507173030 62 288 1.0 4.0 0.00 0.06 0.05 32 1009.0
20260507171525 61 141 2.0 6.0 0.00 0.06 0.05 31 1009.2
20260507170040 61 248 0.0 4.0 0.00 0.06 0.05 32 1009.8
20260507164518 60 144 2.0 6.0 0.00 0.06 0.05 32 1009.9
20260507163016 59 13 0.0 4.0 0.00 0.06 0.05 35 1010.4
20260507161514 59 78 0.0 6.0 0.00 0.06 0.05 38 1010.3
20260507160010 57 19 2.0 7.0 0.00 0.06 0.05 38 1010.5
20260507154509 57 118 0.0 6.0 0.00 0.06 0.05 40 1010.5
20260507153004 56 41 1.0 6.0 0.00 0.06 0.05 41 1010.5
20260507151501 55 50 0.0 6.0 0.00 0.06 0.05 42 1010.7
20260507150113 55 323 0.0 5.0 0.00 0.06 0.05 43 1010.9
20260507144557 54 61 0.0 10.0 0.00 0.12 0.05 43 1010.9
20260507143105 54 63 0.0 4.0 0.00 0.12 0.05 44 1011.3
20260507141552 54 18 1.0 5.0 0.00 0.12 0.05 45 1011.5
20260507140053 53 23 1.0 7.0 0.00 0.12 0.05 45 1011.5
20260507134547 53 2 3.0 8.0 0.00 0.20 0.05 44 1011.5